Jamestown, ND

12:10 PM CST on February 22, 2017 (GMT -0600)
Jamestown Municipal

Weather History for KJMS - January, 2013

Change the Weather History Date:

Tuesday, January 29, 2013

  Actual Average Record
Temperature  
Mean Temperature 18 °F 11 °F  
Max Temperature 24 °F 21 °F 50 °F (1931)
Min Temperature 12 °F 1 °F -36 °F (1951)
Degree Days  
Heating Degree Days 47 54  
Month to date heating degree days 1537 1591  
Since 1 July heating degree days 5185 5251  
Cooling Degree Days 0 0  
Month to date cooling degree days 0 0  
Year to date cooling degree days 0 0  
Moisture  
Dew Point 14 °F    
Average Humidity 85    
Maximum Humidity 92    
Minimum Humidity 77    
Precipitation  
Precipitation T in 0.01 in 0.40 in (1927)
Month to date precipitation 0.01 0.43  
Year to date precipitation 0.01 0.43  
Sea Level Pressure  
Sea Level Pressure 29.85 in    
Wind  
Wind Speed 12 mph (NNW)    
Max Wind Speed 24 mph    
Max Gust Speed 28 mph    
Visibility 7 miles    
Events Snow    
T = Trace of Precipitation, MM = Missing Value Source: NWS Daily Summary

Daily Weather History Graph

Daily Weather History Graph

Search for Another Location

Airport or City:

Trip Planner

Search our weather history database for the weather conditions in past years. The results will help you decide how hot, cold, wet, or windy it might be!

Date:

Astronomy

Jan. 29, 2013 Rise Set
Actual Time 8:02 AM CST 5:33 PM CST
Civil Twilight 7:29 AM CST 6:06 PM CST
Nautical Twilight 6:53 AM CST 6:43 PM CST
Astronomical Twilight 6:17 AM CST 7:18 PM CST
Moon 8:46 PM CST (1/29) 8:47 AM CST (1/29)
Length of Visible Light 10h 36m
Length of Day
9h 30m
Waning Gibbous, 93% of the Moon is Illuminated
Jan 29
Waning Gibbous
Feb 3
Last Quarter
Feb 10
New
Feb 17
First Quarter
Feb 25
Full

Hourly Weather History & Observations

Time (CST) Temp. Windchill Dew Point Humidity Pressure Visibility Wind Dir Wind Speed Gust Speed Precip Events Conditions
12:56 AM 23.0 °F 13.9 °F 19.0 °F 85% 29.75 in 9.0 mi NNW 8.1 mph - N/A   Overcast
1:56 AM 21.9 °F 11.7 °F 18.0 °F 85% 29.74 in 10.0 mi NNW 9.2 mph - N/A   Overcast
2:56 AM 21.0 °F 10.6 °F 16.0 °F 81% 29.74 in 10.0 mi NNW 9.2 mph - N/A   Scattered Clouds
3:56 AM 19.0 °F 9.0 °F 15.1 °F 85% 29.75 in 10.0 mi NNW 8.1 mph - N/A   Mostly Cloudy
4:56 AM 17.1 °F 6.6 °F 14.0 °F 88% 29.75 in 10.0 mi NW 8.1 mph - N/A   Scattered Clouds
5:56 AM 16.0 °F 4.4 °F 12.0 °F 84% 29.75 in 10.0 mi NNW 9.2 mph - N/A   Partly Cloudy
6:56 AM 15.1 °F 6.4 °F 12.0 °F 88% 29.77 in 10.0 mi NNW 5.8 mph - N/A   Mostly Cloudy
7:56 AM 14.0 °F -0.2 °F 10.9 °F 88% 29.79 in 9.0 mi NNW 12.7 mph - N/A   Overcast
8:31 AM 12.2 °F -1.8 °F 10.4 °F 92% 29.72 in 6.0 mi North 11.5 mph - N/A   Mostly Cloudy
8:56 AM 12.0 °F -2.0 °F 10.0 °F 92% 29.81 in 4.0 mi NNW 11.5 mph - N/A   Mostly Cloudy
9:53 AM 12.2 °F -0.2 °F 10.4 °F 92% 29.75 in 2.0 mi NW 9.2 mph - N/A   Overcast
9:56 AM 12.9 °F -0.2 °F 10.9 °F 92% 29.83 in 2.0 mi NW 10.4 mph - N/A   Overcast
10:19 AM 14.0 °F 2.0 °F 12.2 °F 93% 29.76 in 1.5 mi NW 9.2 mph - N/A   Overcast
10:56 AM 15.1 °F 1.8 °F 12.9 °F 91% 29.84 in 2.0 mi NW 11.5 mph - N/A   Overcast
11:26 AM 15.8 °F 4.2 °F 14.0 °F 93% 29.77 in 4.0 mi NW 9.2 mph - N/A   Overcast
11:53 AM 17.6 °F 5.7 °F 15.8 °F 93% 29.78 in 5.0 mi NW 10.4 mph - N/A   Overcast
11:56 AM 17.1 °F 5.8 °F 15.1 °F 92% 29.85 in 5.0 mi NNW 9.2 mph - N/A   Overcast
12:56 PM 19.9 °F 9.3 °F 17.1 °F 89% 29.85 in 6.0 mi NNW 9.2 mph - N/A   Overcast
1:56 PM 21.0 °F 8.1 °F 17.1 °F 85% 29.84 in 10.0 mi North 13.8 mph - N/A   Overcast
2:56 PM 21.0 °F 6.6 °F 16.0 °F 81% 29.85 in 7.0 mi NNW 17.3 mph - N/A   Overcast
3:43 PM 21.2 °F 8.9 °F 15.8 °F 80% 29.81 in 9.0 mi North 12.7 mph - N/A   Overcast
3:56 PM 21.9 °F 9.8 °F 16.0 °F 78% 29.90 in 9.0 mi NNW 12.7 mph - N/A   Overcast
4:56 PM 21.0 °F 8.6 °F 16.0 °F 81% 29.93 in 7.0 mi NNW 12.7 mph - 0.00 in Snow Light Snow
5:56 PM 19.9 °F 6.2 °F 16.0 °F 85% 29.94 in 4.0 mi NNW 15.0 mph - 0.00 in Snow Light Snow
6:42 PM 19.4 °F 5.5 °F 15.8 °F 86% 29.86 in 9.0 mi NNW 15.0 mph - 0.00 in Snow Light Snow
6:56 PM 19.9 °F 5.7 °F 15.1 °F 81% 29.95 in 9.0 mi NNW 16.1 mph - 0.00 in Snow Light Snow
7:56 PM 19.9 °F 6.7 °F 15.1 °F 81% 30.01 in 8.0 mi NNW 13.8 mph - 0.00 in Snow Light Snow
8:18 PM 19.4 °F 7.2 °F 15.8 °F 86% 29.93 in 7.0 mi NNW 11.5 mph - 0.00 in Snow Light Snow
8:41 PM 19.4 °F 8.6 °F 15.8 °F 86% 29.93 in 8.0 mi NNW 9.2 mph - 0.00 in Snow Light Snow
8:56 PM 19.9 °F 5.7 °F 15.1 °F 81% 30.02 in 7.0 mi North 16.1 mph - 0.00 in Snow Light Snow
9:19 PM 19.4 °F 4.5 °F 14.0 °F 80% 29.93 in 6.0 mi NNW 17.3 mph - 0.00 in Snow Light Snow
9:56 PM 18.0 °F 4.2 °F 12.9 °F 81% 30.02 in 6.0 mi North 13.8 mph - 0.00 in Snow Light Snow
10:56 PM 17.1 °F 2.0 °F 12.0 °F 81% 30.02 in 6.0 mi NNW 16.1 mph - 0.00 in Snow Light Snow
11:56 PM 16.0 °F -1.3 °F 10.0 °F 77% 30.02 in 6.0 mi NNW 20.7 mph - 0.00 in Snow Light Snow